User: anonymous   Login
Location: Squamish
(49.7000°N, 123.1500°W)
Time: 21:25:08
(UTC-07:00)
Language:

NOAA 19 - Orbit

View from above orbital plane
View from above orbital plane
View from above satellite
View from above satellite

Ground track
Ground track

The orbit data is extracted from the following two-line orbital elements,

1 33591U 09005A   15244.48560354  .00000115  00000-0  87270-4 0  9991
2 33591  98.9962 194.5721 0013412 319.1553  40.8612 14.11971865338258
Epoch (UTC): 01 September 2015 11:39:16
Eccentricity: 0.0013412
inclination: 98.9962°
perigee height: 843 km
apogee height: 862 km
right ascension of ascending node: 194.5721°
argument of perigee: 319.1553°
revolutions per day: 14.11971865
mean anomaly at epoch: 40.8612°
orbit number at epoch: 33825

The dashed part of the orbit path shows where the satellite is in the earth's shadow,  

DLR